EW3174 Weather Reports


time (UTC)temp
C
wind
direction
speed
KPH
gust
KPH
rain 1hr
cm
rain 24hr
cm
rain mn
cm
humidity
%
barometer
mb
20260507120009 12 99 0.0 0.0 0.00 0.00 0.00 92 1017.9
20260507114507 12 92 0.0 0.0 0.00 0.00 0.00 93 1018.0
20260507113006 12 89 0.0 0.0 0.00 0.00 0.00 93 1018.0
20260507111506 12 90 0.0 9.7 0.00 0.00 0.00 92 1018.1
20260507110002 12 78 0.0 0.0 0.00 0.00 0.00 92 1018.3
20260507104604 12 83 1.6 8.0 0.00 0.00 0.00 92 1018.3
20260507103129 12 42 0.0 8.0 0.00 0.00 0.00 92 1018.5
20260507101557 13 82 0.0 0.0 0.00 0.00 0.00 92 1018.5
20260507100108 13 77 0.0 0.0 0.00 0.00 0.00 92 1018.6
20260507094556 13 85 0.0 0.0 0.00 0.00 0.00 91 1018.6
20260507093052 13 76 0.0 8.0 0.00 0.00 0.00 91 1018.8
20260507091652 13 76 4.8 11.3 0.00 0.00 0.00 91 1018.8
20260507090056 13 76 3.2 8.0 0.00 0.00 0.00 91 1018.9
20260507084553 13 70 4.8 16.1 0.00 0.00 0.00 91 1019.0
20260507083046 13 58 4.8 9.7 0.00 0.00 0.00 90 1019.1
20260507081543 13 63 0.0 0.0 0.00 0.00 0.00 91 1019.3
20260507080049 13 66 0.0 0.0 0.00 0.00 0.00 91 1019.5
20260507074541 13 63 0.0 0.0 0.00 0.00 0.00 90 1019.4
20260507073041 13 47 0.0 0.0 0.00 0.00 0.00 89 1019.4
20260507071535 13 38 0.0 0.0 0.00 0.00 0.00 88 1019.4
20260507070050 14 56 0.0 0.0 0.00 0.00 0.00 88 1019.6
20260507064532 14 56 0.0 0.0 0.00 0.00 0.00 88 1019.4
20260507063035 14 34 0.0 0.0 0.00 0.00 0.00 88 1019.4
20260507061531 15 63 0.0 0.0 0.00 0.00 0.00 87 1019.5
20260507060033 15 67 0.0 0.0 0.00 0.00 0.00 86 1019.5
20260507054532 15 55 0.0 0.0 0.00 0.00 0.00 86 1019.5
20260507053033 16 53 0.0 0.0 0.00 0.00 0.00 85 1019.4
20260507051530 16 11 0.0 0.0 0.00 0.00 0.00 86 1019.4
20260507050040 16 5 0.0 0.0 0.00 0.00 0.00 87 1019.3
20260507044528 16 321 0.0 0.0 0.00 0.00 0.00 86 1019.4
20260507043027 16 345 0.0 0.0 0.00 0.00 0.00 87 1019.2
20260507041527 16 348 0.0 0.0 0.00 0.00 0.00 88 1019.2
20260507040026 16 331 0.0 0.0 0.00 0.00 0.00 88 1019.2
20260507034526 16 288 0.0 0.0 0.00 0.00 0.00 87 1019.2
20260507033025 16 296 0.0 0.0 0.00 0.00 0.00 85 1019.0
20260507031527 16 351 0.0 0.0 0.00 0.00 0.00 86 1019.0
20260507030024 16 284 0.0 0.0 0.00 0.00 0.00 86 1018.7
20260507024525 17 5 0.0 0.0 0.00 0.00 0.00 87 1018.6
20260507023022 17 320 0.0 0.0 0.00 0.00 0.00 87 1018.8
20260507021528 17 335 0.0 0.0 0.00 0.00 0.00 85 1018.5
20260507020120 17 350 0.0 0.0 0.00 0.00 0.00 85 1018.4
20260507014522 17 344 0.0 0.0 0.00 0.00 0.00 84 1018.4
20260507013021 18 311 0.0 0.0 0.00 0.00 0.00 84 1018.2
20260507011520 18 326 0.0 0.0 0.00 0.00 0.00 84 1018.3
20260507010018 18 257 0.0 0.0 0.00 0.00 0.00 82 1018.2
20260507004506 18 287 0.0 0.0 0.00 0.00 0.00 78 1018.1
20260507003103 18 305 0.0 0.0 0.00 0.00 0.00 78 1018.0
20260507001500 18 250 0.0 0.0 0.00 0.00 0.00 78 1018.2
20260507000124 18 302 0.0 0.0 0.00 0.00 0.00 79 1017.9
20260506234621 18 288 8.0 19.3 0.00 0.00 0.00 82 1018.1
20260506233057 18 284 11.3 19.3 0.00 0.00 0.00 81 1017.9
20260506231556 18 20 9.7 20.9 0.00 0.00 0.00 81 1017.9
20260506224553 18 331 9.7 20.9 0.00 0.00 0.00 82 1018.3
20260506223050 18 346 9.7 20.9 0.00 0.00 0.00 82 1018.5
20260506221559 18 262 11.3 19.3 0.00 0.00 0.00 81 1018.5
20260506220048 18 69 11.3 20.9 0.00 0.00 0.00 80 1018.7
20260506214546 18 314 11.3 19.3 0.00 0.00 0.00 79 1018.7
20260506213053 18 295 8.0 22.5 0.00 0.00 0.00 81 1018.9
20260506211551 18 331 11.3 19.3 0.00 0.00 0.00 80 1019.1
20260506210046 18 252 9.7 16.1 0.00 0.00 0.00 80 1019.1
20260506204540 18 304 9.7 16.1 0.00 0.00 0.00 78 1019.3
20260506203038 18 5 8.0 16.1 0.00 0.00 0.00 78 1019.3
20260506201539 18 245 9.7 19.3 0.00 0.00 0.00 79 1019.6
20260506200036 18 300 9.7 16.1 0.00 0.00 0.00 79 1019.6
20260506193045 18 320 8.0 17.7 0.00 0.00 0.00 78 1019.9
20260506191533 18 350 1.6 14.5 0.00 0.00 0.00 79 1020.1
20260506190032 18 292 1.6 12.9 0.00 0.00 0.00 77 1020.3
20260506184531 18 288 0.0 12.9 0.00 0.00 0.00 78 1020.4
20260506183027 18 263 3.2 11.3 0.00 0.00 0.00 77 1020.5
20260506181536 17 259 3.2 11.3 0.00 0.00 0.00 77 1020.6
20260506180025 17 248 3.2 12.9 0.00 0.00 0.00 78 1020.5
20260506174523 17 308 0.0 11.3 0.00 0.00 0.00 79 1020.7
20260506173033 17 308 3.2 8.0 0.00 0.00 0.00 78 1020.7
20260506171521 17 275 3.2 9.7 0.00 0.00 0.00 78 1020.8
20260506170021 17 271 1.6 11.3 0.00 0.00 0.00 78 1020.8
20260506164520 17 277 3.2 8.0 0.00 0.00 0.00 77 1020.7
20260506163027 17 294 0.0 8.0 0.00 0.00 0.00 76 1020.7
20260506161517 17 303 0.0 6.4 0.00 0.00 0.00 78 1020.7
20260506160015 17 264 0.0 0.0 0.00 0.00 0.00 77 1020.6
20260506154512 16 98 3.2 8.0 0.00 0.00 0.00 80 1020.7
20260506153009 16 67 1.6 8.0 0.00 0.00 0.00 81 1020.6
20260506151508 15 80 1.6 6.4 0.00 0.00 0.00 83 1020.6
20260506150100 13 123 1.6 14.5 0.00 0.00 0.00 85 1020.5
20260506144607 13 78 8.0 16.1 0.00 0.00 0.00 86 1020.5
20260506143059 12 88 8.0 19.3 0.00 0.00 0.00 88 1020.5
20260506141601 11 74 9.7 17.7 0.00 0.00 0.00 90 1020.4
20260506140056 11 90 8.0 17.7 0.00 0.00 0.00 90 1020.3
20260506134553 11 78 0.0 14.5 0.00 0.00 0.00 91 1020.2
20260506131553 10 66 3.2 12.9 0.00 0.00 0.00 91 1020.0
20260506130056 10 81 3.2 12.9 0.00 0.00 0.00 91 1019.9
20260506124548 10 69 6.4 14.5 0.00 0.00 0.00 91 1019.6
20260506123045 11 84 1.6 12.9 0.00 0.00 0.00 90 1019.6
20260506121545 11 74 4.8 16.1 0.00 0.00 0.00 90 1019.6